GFSSGP_500_rhum_279.txt.gz
RH
70 69 74 63 46 59 90 83 86 15 11 12 14 16 16 11 6 5 3 3 4 4 2 2 3 7 10 14 18 20 20 22 26 29 30 29 29 27 24 27 35 36 57 61 44 40 62 92 88
58 64 72 73 40 96 96 48 98 22 12 11 11 12 15 16 11 6 4 4 4 4 3 3 2 4 10 12 16 15 13 13 16 20 24 26 27 28 27 24 24 26 26 25 29 27 21 17 20
52 58 67 63 42 97 94 91 68 64 15 14 13 14 13 13 16 15 9 4 4 4 4 4 3 2 3 10 11 11 9 7 8 10 13 16 21 24 25 25 24 21 24 25 25 24 20 20 14
43 53 58 61 74 91 87 96 60 59 20 14 15 21 18 16 13 13 16 14 6 4 4 4 4 4 3 2 2 4 3 2 3 4 6 7 9 12 15 17 19 19 22 24 24 22 21 17 13
35 48 54 60 56 96 94 80 50 50 17 14 29 35 41 35 16 14 12 13 16 12 6 4 4 4 4 4 3 3 3 3 3 2 3 3 3 4 4 5 5 6 12 21 23 22 20 18 14
28 39 50 55 53 82 75 64 61 43 19 21 36 47 45 43 34 17 12 11 11 14 16 14 8 5 4 4 4 4 4 4 4 4 4 4 3 3 3 2 3 3 4 6 11 16 16 17 15
18 28 38 48 50 88 61 62 65 57 38 22 40 46 44 40 40 34 17 14 11 9 10 13 16 16 14 9 6 5 5 5 4 4 4 4 4 4 4 3 3 3 2 3 3 4 5 6 7
15 21 27 39 48 96 82 60 73 77 71 58 38 44 45 41 42 40 26 19 15 14 13 8 9 11 11 14 16 16 13 8 6 5 5 4 4 4 4 4 4 4 4 4 4 3 3 3 3
14 15 21 35 46 77 71 62 58 56 61 59 62 37 42 43 42 41 33 22 17 16 16 16 14 12 9 8 8 9 10 13 15 12 8 6 5 5 5 4 4 4 4 4 4 4 5 5 5
17 14 19 29 36 63 74 67 55 51 46 52 63 61 38 43 44 38 38 21 22 19 18 18 20 18 16 18 16 15 14 11 9 9 12 15 14 10 8 6 6 6 6 6 5 5 5 5 5
30 20 32 34 29 33 31 60 54 47 46 68 72 68 56 44 49 37 29 20 19 21 20 18 18 18 17 17 18 19 20 20 19 17 15 11 9 10 14 16 15 12 9 7 6 6 7 7 6
37 33 21 18 16 22 28 36 53 46 42 54 69 71 64 55 58 42 25 21 20 19 18 16 15 15 14 13 13 13 13 13 15 21 21 19 18 18 17 15 12 11 12 14 16 15 13 10 7
50 50 39 32 16 19 21 29 43 46 39 40 46 56 67 63 58 56 30 22 18 16 15 14 13 13 12 11 11 10 10 9 8 9 9 10 10 12 14 18 20 21 22 21 19 15 13 15 18
54 64 47 43 26 16 18 21 34 40 36 36 47 44 62 58 47 57 36 25 21 19 18 16 13 11 10 9 8 9 11 9 8 12 22 31 35 32 29 22 18 15 13 16 18 18 21 24 23
43 51 55 56 39 22 17 19 25 28 35 51 46 40 46 62 54 46 32 28 26 24 28 23 17 12 9 7 13 10 23 36 47 50 52 56 63 62 57 51 50 50 38 31 33 33 30 30 26
33 56 53 65 54 28 21 19 19 26 29 52 58 42 46 56 54 52 42 40 39 32 34 34 23 15 9 8 13 29 43 46 47 51 54 57 59 62 48 40 36 29 24 12 7 5 3 3 3
30 38 53 97 69 48 23 26 20 24 29 38 51 47 48 46 47 51 53 58 53 45 42 41 31 19 13 9 10 26 42 43 43 46 54 60 52 42 26 14 8 5 4 2 2 1 1 1 1
17 55 95 89 60 82 58 30 25 21 23 27 35 33 37 45 40 46 48 50 49 47 37 34 29 21 16 12 12 30 41 42 44 46 50 94 35 23 13 6 4 2 2 1 1 1 1 1 1
32 67 81 90 92 66 93 89 47 18 20 21 25 28 32 36 38 42 44 43 42 42 30 24 23 20 15 10 11 21 37 44 50 52 47 28 18 13 5 4 2 2 1 1 1 1 1 1 1
3 46 78 84 97 85 79 98 73 41 20 18 20 23 28 31 36 39 41 39 35 35 27 25 21 16 13 12 14 36 39 50 50 46 35 18 11 6 3 2 1 1 1 1 1 1 1 1 1
2 4 67 85 84 97 85 96 71 74 77 38 18 18 20 24 30 29 28 30 32 29 26 21 17 15 13 14 30 33 28 52 53 38 20 9 4 2 2 1 1 1 1 1 1 1 1 1 1
2 2 17 85 95 99 89 100 72 75 89 81 52 17 17 18 21 26 31 33 29 22 19 16 14 13 13 16 22 26 40 54 48 32 12 4 2 2 1 1 1 1 1 2 1 2 2 1 1
3 6 36 60 89 100 96 98 79 63 49 70 79 77 21 16 25 33 33 23 19 17 14 14 14 14 16 22 30 38 62 61 48 13 5 2 2 1 1 1 1 1 2 1 2 2 2 2 2
4 4 8 57 70 100 94 53 36 69 45 89 88 74 31 19 24 26 23 26 42 43 37 40 39 36 30 33 50 60 65 57 25 5 2 2 2 1 1 1 2 2 2 2 2 2 2 2 3
6 6 9 50 63 68 49 85 15 80 55 56 84 96 78 60 45 48 58 74 74 69 71 61 58 56 61 59 64 63 64 40 5 2 2 2 2 2 1 2 2 2 2 2 2 2 2 3 4
10 9 12 58 55 62 58 82 12 59 95 98 58 79 96 88 71 55 59 68 76 61 60 57 54 57 61 54 55 57 41 7 3 2 2 2 2 2 2 2 2 2 2 2 2 3 3 4 4
10 35 6 38 64 62 60 69 81 97 97 71 59 34 68 70 84 86 88 90 87 83 80 74 72 64 61 57 43 27 8 3 2 2 2 2 2 2 2 2 2 2 3 3 3 4 4 4 4
12 11 55 65 74 70 69 74 73 92 92 100 63 21 32 72 79 88 93 91 93 93 95 87 79 67 66 58 12 5 4 3 2 2 2 2 2 3 3 3 3 4 4 4 4 5 5 4 5
12 14 31 80 69 82 75 69 67 78 91 72 72 52 28 52 68 92 83 72 68 76 80 97 80 71 56 23 6 5 4 3 2 2 2 2 3 3 3 4 4 5 5 5 5 5 5 5 5
14 28 22 39 60 79 73 77 74 77 85 99 88 79 70 47 66 65 60 68 52 66 86 95 53 31 9 7 6 5 4 3 3 2 3 3 4 4 4 5 6 6 6 5 5 5 5 5 6

GFSSGP_500_rhum_282.txt.gz
RH
70 75 70 37 54 59 94 95 90 22 11 13 15 16 12 7 6 7 3 3 4 3 2 3 8 11 15 22 24 20 22 24 23 25 23 23 22 26 42 63 74 87 66 45 76 90 100 93 82
66 72 69 48 53 91 95 93 99 35 12 11 13 14 15 11 6 4 3 3 4 4 3 2 5 10 12 13 15 13 11 15 20 20 23 24 24 20 24 43 27 39 42 32 26 22 21 41 48
64 63 65 52 52 83 91 96 85 69 29 13 11 12 14 16 13 8 4 4 3 4 4 3 2 4 10 9 7 6 4 5 8 12 16 17 20 23 21 19 23 25 25 26 26 22 20 16 13
52 61 58 56 54 88 94 91 94 70 56 26 12 11 13 13 14 16 13 6 4 4 4 4 4 3 2 2 2 2 2 2 3 4 5 6 6 7 9 12 18 20 22 25 23 22 19 15 14
37 49 54 32 45 76 84 96 52 63 52 24 13 12 13 14 13 13 14 16 13 6 4 4 4 4 4 4 4 4 4 3 2 2 3 3 2 3 3 3 4 6 17 22 22 23 22 19 15
21 36 44 35 37 68 83 87 98 60 45 18 14 13 13 16 15 13 11 12 14 16 13 7 5 5 5 4 4 4 4 4 4 3 3 3 3 3 3 3 3 3 3 5 9 11 12 13 12
15 20 34 40 40 59 81 92 100 45 49 20 29 25 17 17 23 16 13 11 9 10 13 16 16 13 9 7 6 6 5 5 4 4 4 4 4 3 3 3 3 3 3 3 3 3 3 4 5
19 13 22 34 39 51 64 96 86 49 60 34 26 37 29 26 27 27 16 15 14 13 9 9 11 12 15 16 16 14 11 7 6 6 5 5 5 4 4 4 3 3 3 3 4 4 4 4 3
29 15 14 21 32 41 48 94 87 74 45 62 53 46 40 37 33 32 27 22 18 14 15 14 11 8 8 9 9 9 10 12 14 13 11 9 7 6 5 5 4 4 4 4 4 4 4 4 4
38 30 15 15 31 36 46 63 97 63 45 74 63 59 61 44 40 36 35 26 22 18 16 17 17 15 15 16 16 15 15 14 12 10 10 11 12 13 12 11 10 8 7 6 5 5 5 4 4
44 38 20 19 32 31 96 97 85 62 57 55 51 59 64 64 51 43 40 36 19 21 18 16 17 18 16 15 17 18 17 18 18 19 19 18 16 14 12 12 11 12 13 14 13 12 10 8 6
56 40 29 19 24 32 83 96 58 53 54 52 50 66 70 69 62 48 44 31 21 18 19 17 16 16 14 13 13 12 12 12 12 11 11 12 14 14 16 19 19 18 17 15 14 15 15 16 18
43 53 46 26 17 17 40 72 57 37 45 43 46 61 75 73 70 60 53 45 22 19 18 16 14 14 13 12 11 11 10 9 8 7 8 10 18 22 24 21 22 17 16 19 21 22 22 22 21
24 50 70 57 32 27 28 41 22 21 41 44 47 46 57 62 69 69 60 55 31 20 16 15 15 13 12 11 10 8 9 11 14 15 30 44 49 51 57 57 54 50 38 33 26 15 17 20 21
10 45 96 64 42 42 23 26 24 18 30 40 47 41 47 51 56 66 54 51 43 22 23 22 23 18 13 11 8 8 11 20 38 42 46 48 51 50 53 58 62 48 52 41 36 27 14 7 6
14 14 27 54 62 52 46 31 26 18 24 26 41 42 44 48 45 58 63 54 39 28 26 26 29 31 19 13 9 9 15 30 42 41 36 39 45 48 54 53 40 25 13 8 6 4 2 1 1
3 4 10 48 76 70 55 47 32 24 21 28 35 40 58 54 45 44 61 56 43 37 36 34 29 37 30 19 14 10 9 14 36 34 34 41 48 50 74 38 28 15 6 4 2 2 1 1 1
2 4 22 68 74 82 54 65 52 37 22 22 31 39 51 59 61 42 42 47 44 52 49 52 36 32 33 26 19 14 11 12 28 33 39 44 48 47 35 25 15 6 3 2 1 1 1 1 1
4 13 50 50 94 93 54 55 76 58 34 26 23 27 36 41 54 48 34 31 37 47 48 49 47 39 28 25 21 16 11 10 12 27 36 39 44 45 32 22 9 3 2 1 1 1 1 1 1
3 3 19 61 71 96 97 92 84 55 69 40 25 24 27 31 31 39 32 31 37 41 43 42 40 36 24 20 20 16 13 11 16 27 26 41 39 33 20 8 4 2 2 1 1 1 1 1 1
3 3 4 32 69 94 97 94 96 52 43 81 50 42 27 23 26 28 31 31 35 38 37 34 33 27 22 20 19 16 14 12 12 14 22 44 44 32 17 5 2 2 1 1 1 1 1 1 2
4 10 23 37 70 89 91 96 97 65 53 62 74 32 36 27 20 23 26 28 28 36 34 30 28 25 22 21 18 15 14 12 11 13 23 53 48 30 14 3 2 1 1 1 1 1 1 1 2
5 8 8 35 57 84 91 98 80 74 58 44 84 64 39 26 28 18 20 22 24 27 27 27 26 24 21 19 16 14 13 12 11 21 39 56 46 22 5 2 2 1 1 1 1 1 1 2 2
5 5 8 14 54 72 66 99 68 86 29 26 46 72 85 60 45 36 18 17 18 22 29 29 26 22 18 16 15 14 14 15 19 27 41 59 32 10 2 2 1 1 1 1 2 2 2 2 2
8 8 6 9 30 30 29 88 44 71 65 65 47 70 84 73 74 73 82 32 29 40 36 29 24 18 17 16 16 18 22 35 42 52 58 55 11 4 2 2 2 2 2 2 2 2 2 2 2
8 9 9 6 6 7 8 36 5 50 79 98 95 88 62 64 88 93 85 68 50 29 30 27 26 23 23 24 28 36 43 44 42 40 50 18 4 2 2 2 2 2 2 2 2 2 2 3 3
9 10 12 44 15 58 21 48 23 31 73 66 99 62 72 50 35 58 83 74 49 58 60 46 41 46 55 59 62 63 58 47 48 43 28 5 3 2 2 2 2 2 3 3 2 3 3 3 4
40 30 27 71 55 49 6 23 46 50 50 57 84 96 57 30 48 51 68 96 96 91 87 72 64 70 64 77 82 73 71 59 53 23 8 3 2 2 2 2 2 4 3 3 3 4 4 4 4
97 35 29 47 87 84 38 9 9 38 61 86 81 70 55 51 38 55 58 68 80 88 93 86 84 84 86 90 87 84 76 68 52 12 4 3 2 2 2 2 4 4 4 3 4 4 4 4 5
100 91 99 72 26 57 92 22 28 56 68 84 94 99 92 85 74 70 47 60 40 66 72 76 73 76 73 77 91 88 68 47 23 6 4 3 2 3 3 3 4 4 4 5 5 5 5 5 4

GFSSGP_500_rhum_285.txt.gz
RH
67 75 68 71 71 73 84 95 98 82 77 12 14 14 13 8 4 4 3 3 4 2 3 10 12 20 19 13 13 18 20 22 21 21 38 26 48 87 90 89 91 84 96 97 89 90 84 78 73
56 66 63 69 64 68 86 96 88 63 33 12 13 14 14 10 6 4 3 3 4 4 2 4 9 10 8 6 5 7 14 17 19 20 21 20 27 52 55 59 92 64 44 41 47 83 97 84 65
50 63 65 68 70 73 75 84 94 62 32 14 12 12 14 15 10 6 4 4 3 4 4 3 3 6 5 3 2 3 5 8 10 12 14 19 20 22 45 29 26 26 28 28 25 21 17 16 13
43 46 59 56 69 75 77 75 89 56 38 34 24 13 13 15 16 13 7 4 4 4 4 4 4 3 3 4 4 3 2 4 6 6 4 5 9 16 18 17 19 25 26 24 20 16 14 13 13
33 39 51 54 65 68 70 73 95 56 43 26 31 14 10 13 14 15 16 12 6 4 4 4 4 4 4 4 4 4 4 3 2 3 3 3 3 3 4 8 17 20 21 22 23 22 20 16 12
13 29 40 38 53 62 68 71 88 70 48 31 22 13 11 11 11 12 13 14 16 14 8 5 5 5 5 4 4 4 4 4 3 3 2 2 2 3 3 3 3 4 7 12 14 15 16 16 15
19 15 23 31 38 62 60 61 89 98 86 38 26 14 14 9 9 11 10 9 11 14 16 16 13 9 7 6 6 6 5 4 4 4 3 3 3 3 3 2 2 2 2 3 3 3 4 5 6
44 24 14 22 27 55 48 54 85 95 97 46 31 18 24 16 9 9 13 12 10 8 9 12 12 13 15 15 15 14 13 11 9 7 6 5 4 4 4 4 3 3 3 3 3 2 2 3 3
50 39 20 13 22 51 41 43 62 91 96 79 36 20 32 32 23 21 17 13 13 13 12 10 8 8 8 8 9 9 9 9 10 11 12 12 11 11 10 8 7 6 5 4 4 4 4 4 4
49 44 34 14 16 44 40 42 72 68 96 84 48 56 34 43 40 38 29 24 18 15 15 16 16 13 14 14 15 16 18 18 18 17 16 15 14 13 13 13 13 13 12 12 10 8 7 6 5
52 47 37 17 15 22 39 40 97 74 92 100 73 66 51 55 48 45 44 40 36 20 18 18 16 16 15 14 16 16 15 14 14 16 17 15 17 16 16 17 18 17 17 15 14 14 14 14 14
42 50 46 21 18 18 37 41 56 78 68 74 63 61 55 52 58 59 60 46 37 25 18 20 18 17 15 14 13 12 12 12 10 9 9 8 10 15 21 24 21 23 22 22 21 20 20 20 20
14 45 54 28 21 27 27 58 36 92 97 69 54 57 54 49 53 70 65 54 46 27 21 20 17 15 14 13 12 11 10 9 8 8 7 11 36 45 48 50 50 48 42 37 25 25 20 18 20
10 21 36 48 23 16 25 35 92 93 54 48 36 60 55 52 61 64 67 63 60 44 21 16 16 14 14 12 12 10 8 10 10 17 24 30 38 42 46 48 47 54 59 49 49 48 40 31 25
3 12 16 43 39 24 22 27 30 36 46 39 29 51 57 50 58 62 65 68 65 57 30 18 20 20 17 15 12 10 7 10 18 37 40 38 34 39 46 45 49 55 42 28 19 13 8 5 3
1 2 7 16 49 53 30 26 27 28 38 43 31 35 54 50 46 45 47 48 58 52 49 24 23 26 27 25 16 12 8 11 20 31 42 33 35 44 46 46 65 40 29 18 8 5 3 2 1
2 1 2 9 24 46 51 36 29 31 37 30 27 24 32 46 47 42 43 43 43 58 49 35 27 26 26 32 29 19 14 11 9 11 27 33 32 40 41 47 46 29 19 10 6 3 2 1 1
3 2 3 7 20 49 50 40 59 52 40 30 23 20 20 32 43 44 42 46 44 41 54 48 35 35 28 30 30 30 22 17 13 11 18 20 27 36 38 38 39 32 15 6 4 2 1 1 1
4 3 2 2 18 34 43 86 20 52 70 59 36 24 18 22 35 44 41 47 50 47 44 50 52 51 49 43 32 31 26 21 17 12 12 12 21 23 38 36 29 19 9 4 2 1 1 1 1
9 3 3 2 5 59 58 96 88 28 30 42 58 46 27 21 23 39 39 48 52 61 46 40 40 45 48 47 43 33 25 20 18 14 12 11 12 11 31 39 34 17 8 3 2 1 1 1 1
8 8 3 4 7 62 89 97 87 79 82 80 33 39 52 30 22 24 26 35 56 66 55 41 38 36 40 38 36 33 24 20 18 17 14 12 10 11 34 49 38 22 8 2 1 1 1 1 1
6 7 6 3 18 68 70 84 97 65 45 61 80 55 40 55 43 30 25 25 36 57 54 38 35 35 33 34 29 26 22 20 19 18 15 12 11 19 30 48 38 24 6 2 1 1 1 2 2
3 8 7 6 4 57 62 75 74 92 66 29 80 71 72 43 62 44 33 25 26 33 34 34 33 33 31 29 26 25 24 21 18 16 14 12 15 18 30 52 36 14 3 2 1 1 1 2 2
6 5 8 7 7 33 59 65 47 53 57 71 71 75 70 65 53 72 42 42 25 23 23 25 28 28 27 25 24 24 22 19 17 16 17 21 26 30 43 49 28 5 2 2 2 1 2 2 2
9 8 6 7 9 6 15 66 14 41 56 63 64 81 84 74 56 52 76 39 32 23 23 23 18 20 22 21 21 21 20 16 17 19 21 25 33 30 30 39 16 2 2 2 2 2 2 2 2
10 12 10 8 7 6 6 27 34 14 52 94 86 99 95 61 38 40 42 65 74 68 64 66 38 28 28 25 24 21 17 17 18 22 33 33 38 37 37 24 8 2 2 2 2 2 2 2 3
21 18 18 15 9 11 6 6 5 25 33 48 74 100 92 75 50 51 53 58 48 80 87 83 82 49 36 43 26 19 22 29 27 45 48 49 46 38 29 11 4 2 2 2 2 3 3 3 3
65 60 69 50 26 28 7 7 6 5 19 64 64 74 77 68 57 83 84 68 63 74 88 86 81 75 70 56 35 43 56 55 50 51 61 63 58 35 21 5 2 2 2 2 3 3 3 4 4
96 95 98 92 74 60 26 9 6 6 5 39 55 66 53 50 29 18 28 49 59 69 81 62 75 83 69 62 56 55 53 53 72 81 82 77 66 27 8 3 2 2 2 3 4 4 4 5 5
88 96 100 100 90 82 70 15 9 7 9 52 70 87 99 66 74 88 76 56 44 37 32 47 54 58 83 98 93 85 82 79 72 78 78 74 35 11 4 3 3 3 3 4 5 5 6 6 6

GFSSGP_500_rhum_288.txt.gz
RH
54 69 76 78 73 74 96 85 83 92 84 93 73 14 14 6 4 3 3 3 3 5 11 16 17 14 10 12 17 24 24 21 27 31 34 82 70 69 84 84 86 94 93 88 92 88 84 78 82
49 61 74 73 70 69 76 81 84 81 52 58 46 15 14 9 5 4 3 3 3 2 8 12 10 5 3 4 8 12 18 21 20 20 25 72 83 77 83 74 67 78 94 91 91 94 87 77 72
44 45 59 66 74 71 65 71 86 58 13 13 13 15 15 14 8 5 3 3 3 4 3 4 5 4 3 2 4 6 8 11 15 19 19 38 41 40 54 62 35 30 30 26 61 95 84 54 40
37 49 40 51 68 72 63 66 94 38 17 14 13 13 14 15 14 8 5 4 3 4 4 4 3 3 3 3 2 3 4 5 6 8 13 17 33 39 31 25 22 23 23 22 18 17 15 14 12
28 33 33 38 62 71 65 61 83 53 32 24 20 16 13 14 14 16 13 7 4 4 4 4 4 4 4 4 3 3 3 3 3 4 5 6 10 16 18 20 22 24 25 25 24 21 16 14 14
18 20 24 33 63 69 59 61 69 65 35 28 26 19 16 13 12 14 15 16 14 7 5 5 4 4 4 4 4 4 3 3 3 2 2 3 3 4 6 9 12 15 16 16 17 18 20 21 20
24 16 19 25 45 61 62 61 58 79 49 43 55 38 28 15 12 10 12 14 15 17 16 13 10 7 6 6 6 5 4 4 4 3 3 3 2 2 2 2 3 3 4 4 6 8 11 12 12
38 17 14 14 26 45 59 56 51 63 66 62 68 55 51 28 12 10 9 9 9 11 12 13 13 15 15 14 13 12 11 10 10 9 8 7 6 6 5 4 4 3 3 3 3 2 2 2 2
41 30 14 14 18 27 49 54 64 72 78 70 63 60 48 46 33 17 12 12 12 11 8 8 8 8 9 9 9 10 11 11 12 13 13 12 12 13 13 12 12 10 9 8 7 6 5 4 4
32 35 24 28 18 24 38 54 46 46 51 86 54 56 49 50 49 43 36 22 15 12 12 11 11 13 14 16 16 17 18 17 18 17 16 16 16 16 16 16 17 17 16 16 14 13 12 12 11
28 44 42 38 18 20 36 46 49 44 56 86 71 60 62 63 63 60 46 46 40 31 17 13 14 15 16 16 16 15 13 13 12 11 10 10 10 15 22 28 28 28 28 24 20 20 19 18 18
5 35 52 34 19 17 21 37 42 49 89 96 82 88 97 92 62 67 63 54 48 39 24 19 16 16 16 15 14 13 12 11 10 8 8 8 26 46 48 46 50 54 52 46 39 33 26 27 23
1 15 52 40 19 26 20 28 37 52 42 73 79 91 89 88 68 62 69 68 58 46 30 21 18 18 16 14 13 12 11 10 9 10 10 19 40 46 46 44 53 59 56 59 59 50 48 46 36
1 3 16 54 23 17 25 26 35 52 45 59 58 60 75 66 59 56 61 68 68 61 51 27 19 16 15 14 12 11 10 9 12 11 22 38 43 36 36 47 49 52 55 56 45 43 32 32 33
1 1 4 48 42 22 20 27 37 39 40 34 90 90 92 91 67 57 68 72 74 72 65 57 24 17 17 17 16 13 10 8 8 16 37 44 40 31 38 40 45 48 55 42 32 18 8 7 5
3 1 1 16 61 29 30 28 40 42 42 44 41 83 82 84 69 59 54 64 77 71 66 59 46 22 21 24 23 19 14 11 9 13 23 29 34 33 32 36 40 46 48 38 22 8 6 4 2
4 2 1 2 31 57 32 30 41 56 58 60 59 82 84 66 54 62 55 52 62 71 58 55 51 43 25 24 23 24 24 19 16 13 11 10 14 24 28 34 42 37 35 34 17 5 4 2 1
6 3 2 2 10 31 51 38 31 55 45 65 80 56 36 51 42 48 54 50 50 54 47 39 37 48 38 29 25 26 28 28 28 21 18 12 10 11 19 24 30 40 33 19 7 3 3 2 1
16 6 3 2 3 11 12 35 54 57 70 63 60 44 34 30 25 26 33 46 46 50 51 47 41 34 47 49 42 39 37 32 31 26 21 17 13 12 15 13 12 36 44 25 9 4 2 1 1
11 16 9 3 3 28 51 31 59 44 46 63 68 68 54 43 37 28 20 29 44 46 59 54 53 53 37 39 47 48 46 45 40 29 23 19 17 14 12 11 11 30 44 32 14 4 2 1 1
4 10 13 8 4 6 37 88 87 33 34 38 46 49 56 49 47 41 25 22 31 43 53 56 54 61 53 37 33 35 40 42 39 33 24 20 18 16 14 12 15 22 42 37 20 4 2 1 1
3 4 8 7 6 4 10 13 41 55 37 26 20 38 38 28 29 49 42 24 25 45 50 61 68 72 69 50 37 36 34 36 33 28 23 20 18 16 14 13 15 25 47 41 19 6 2 1 1
6 5 5 6 6 5 6 9 5 14 12 10 24 28 61 71 56 40 55 39 30 32 38 42 52 66 68 57 38 36 33 31 28 26 24 20 17 16 17 20 24 24 33 34 17 5 2 2 2
7 6 6 7 7 9 8 11 10 20 9 32 55 51 71 75 84 96 74 65 49 30 30 30 44 41 42 38 32 30 30 29 27 24 24 18 17 18 19 28 33 31 32 30 11 3 2 2 2
10 9 8 8 8 4 6 19 19 30 19 30 31 53 90 86 93 85 85 68 74 67 40 36 36 29 25 25 23 23 23 22 21 24 24 17 19 22 23 29 31 33 32 22 8 2 2 2 2
14 14 14 12 9 6 12 20 7 16 35 46 59 58 82 91 90 72 73 65 67 80 60 46 48 42 24 22 28 27 23 20 22 25 21 18 23 29 39 40 40 36 30 18 5 2 2 2 3
14 14 17 17 13 11 9 6 5 14 36 42 48 57 61 77 63 64 72 56 48 45 62 61 61 58 39 46 54 72 59 35 30 32 21 21 32 47 55 62 57 29 20 10 3 2 2 3 3
18 19 32 35 25 19 9 8 4 5 9 46 60 66 55 87 78 88 96 85 59 72 85 84 73 58 65 73 77 79 89 66 52 48 33 34 51 52 66 78 65 28 22 3 2 2 3 3 4
46 61 54 43 43 46 25 8 6 6 6 7 20 62 72 86 81 74 82 74 74 61 64 77 67 83 74 77 63 67 82 77 69 54 49 52 55 60 78 82 72 26 5 3 3 3 3 4 4
76 96 98 92 54 53 47 10 14 14 12 13 13 39 68 89 87 67 50 43 52 48 43 53 63 70 70 69 69 59 58 83 89 83 79 81 82 75 78 77 43 12 4 3 3 5 6 4 5

GFSSGP_500_rhum_294.txt.gz
RH
30 33 40 59 74 77 80 80 63 60 70 41 12 16 10 4 6 4 3 7 12 12 12 7 6 10 16 21 22 21 21 26 71 86 72 73 84 84 91 88 81 79 78 92 93 77 86 92 99
32 32 29 39 63 73 73 80 70 60 81 71 11 14 13 6 3 4 3 4 9 10 10 7 3 4 9 15 20 23 20 21 62 85 80 81 79 82 79 81 79 81 77 80 83 87 94 91 88
28 32 32 29 38 70 73 71 67 66 62 62 11 12 15 9 4 4 4 3 4 7 8 3 2 3 6 8 10 16 20 19 32 46 84 86 84 84 78 80 84 87 86 82 79 80 79 80 76
44 28 31 32 36 66 74 72 69 66 59 58 12 13 13 15 6 4 4 4 3 2 2 3 3 2 3 4 4 5 9 16 20 33 34 44 70 60 46 76 86 67 77 87 86 85 73 64 56
34 34 28 21 31 50 71 62 64 59 59 74 17 20 12 16 12 5 4 4 4 3 4 4 3 3 3 3 3 3 3 4 7 18 26 21 28 38 42 47 32 28 24 29 35 27 18 14 13
24 28 27 23 30 46 53 47 52 62 49 55 16 18 15 14 15 14 6 4 4 4 4 4 4 4 4 4 4 3 3 3 3 3 5 8 14 18 20 21 20 22 23 23 22 21 21 20 18
28 38 29 27 24 38 50 41 38 65 67 55 24 21 18 14 14 15 15 9 6 6 6 6 7 7 7 6 5 5 4 4 3 3 3 3 3 3 3 3 3 4 4 7 10 15 17 17 17
48 47 40 24 24 30 37 36 30 51 60 55 29 22 19 19 14 12 14 16 16 16 14 13 14 14 14 13 12 11 11 10 9 9 9 10 11 14 14 14 14 15 14 10 6 5 4 3 3
12 41 51 32 27 25 26 34 32 48 57 60 34 26 21 27 22 16 10 10 11 12 11 9 8 8 9 10 11 12 13 13 14 14 15 17 18 18 18 19 21 23 23 22 23 21 18 16 13
2 7 54 40 42 26 19 22 29 36 48 69 49 32 28 34 29 25 17 15 13 13 11 10 9 12 15 16 18 18 18 18 19 18 17 16 16 18 31 38 40 41 40 38 34 28 23 22 20
3 2 35 63 47 36 22 17 17 26 34 50 57 54 40 43 44 47 45 40 30 19 19 20 20 18 17 17 17 14 13 13 11 10 10 10 29 47 46 42 44 45 46 48 49 49 46 44 38
4 2 6 59 56 47 31 20 16 17 24 33 54 72 54 45 48 58 56 52 48 40 28 26 23 21 19 16 15 14 12 11 10 9 8 15 38 40 40 38 44 46 47 47 50 53 53 50 46
8 4 2 18 59 59 33 28 23 19 31 21 26 46 63 51 50 56 60 57 56 48 36 26 24 22 18 16 14 12 11 10 9 12 11 22 40 46 38 38 40 39 43 44 49 50 44 39 36
6 6 2 4 54 63 46 28 25 23 23 30 28 28 43 68 56 65 65 69 67 58 45 30 23 19 16 15 14 13 12 10 9 12 16 34 46 46 39 35 34 32 38 40 48 51 45 38 28
6 5 4 2 28 62 50 38 26 27 25 34 49 30 51 62 70 66 70 78 78 73 59 55 34 18 19 22 21 24 19 15 11 9 10 22 35 36 38 30 29 29 32 37 33 32 34 28 21
14 5 5 2 6 60 64 48 29 25 26 30 39 24 36 60 61 88 81 77 70 69 73 66 68 51 22 28 28 28 35 33 27 24 19 15 14 13 12 12 16 13 21 22 21 28 28 23 16
2 13 5 2 3 38 67 61 62 39 27 30 38 34 36 36 32 64 73 81 84 86 76 69 75 70 63 44 26 27 28 30 31 34 35 33 28 23 19 15 14 14 15 15 11 14 30 32 28
2 7 13 3 3 8 54 66 72 76 52 33 32 38 35 46 59 82 97 91 85 88 77 77 76 72 66 62 57 44 36 34 35 40 41 40 38 32 26 21 19 17 15 13 12 12 18 31 30
2 3 10 12 3 3 18 56 69 76 79 59 33 27 36 47 51 60 95 94 96 86 99 85 78 79 74 70 69 66 66 62 58 56 54 52 48 45 39 28 22 19 18 16 14 14 13 20 30
3 3 3 13 11 3 4 23 54 68 75 83 71 44 43 45 68 89 81 76 98 77 71 83 74 72 72 70 66 62 58 65 60 56 51 46 45 46 41 34 28 22 19 17 15 15 17 22 29
5 4 4 5 13 11 3 4 24 48 63 72 88 76 54 50 53 63 77 86 79 65 50 46 59 69 68 71 75 70 65 69 68 63 56 44 40 40 38 33 28 22 18 17 17 22 24 27 28
8 6 5 4 4 13 12 3 4 14 37 56 74 85 72 60 50 51 51 51 55 44 35 34 33 46 52 56 82 95 84 86 77 76 71 54 46 38 33 31 27 24 18 18 18 26 31 32 30
11 8 6 5 4 4 11 12 3 4 10 14 37 58 66 64 78 68 63 63 64 65 42 32 26 24 41 58 69 83 92 94 92 79 72 69 56 38 33 30 27 25 20 20 21 26 33 35 32
13 11 9 7 6 4 5 10 13 5 3 7 24 35 58 40 45 78 73 73 72 60 57 58 43 26 42 65 51 60 81 93 96 85 68 57 43 32 28 25 24 25 21 22 26 39 47 46 37
15 16 12 10 7 6 5 4 4 11 9 5 12 36 60 92 49 30 61 67 74 72 68 70 68 58 65 77 50 49 56 68 82 64 55 46 33 24 20 23 26 26 24 37 50 64 54 55 44
20 18 16 14 11 9 9 6 4 5 10 10 8 12 54 58 32 27 23 58 65 65 77 66 43 48 56 60 41 64 72 66 60 68 55 31 23 31 60 71 39 30 30 36 61 59 76 73 36
23 22 20 18 15 12 10 8 9 10 11 10 11 9 8 13 31 38 24 29 70 83 80 68 70 53 50 63 74 76 77 65 75 76 37 25 33 58 69 74 74 58 53 44 54 48 57 80 58
29 28 26 21 18 15 12 12 10 9 8 7 6 9 10 9 9 14 51 55 41 59 81 73 84 88 84 80 92 95 76 60 73 90 42 33 63 77 81 84 86 84 75 66 61 70 70 79 50
34 31 30 27 23 19 17 16 13 13 13 10 8 6 9 10 12 20 43 78 73 58 77 100 89 96 100 97 97 97 95 91 94 96 66 74 78 80 94 96 82 77 88 83 83 89 81 68 32
44 39 36 34 28 25 24 22 19 16 14 14 13 10 6 9 14 21 35 44 62 53 52 70 96 89 94 97 97 97 97 96 97 99 90 88 79 92 90 86 94 93 94 96 93 63 51 44 22

GFSSGP_500_rhum_297.txt.gz
RH
26 31 33 38 64 78 78 73 55 52 79 55 13 15 8 5 3 3 6 12 15 10 6 4 10 16 16 19 18 27 74 81 80 91 93 95 95 89 83 81 82 81 82 79 88 80 79 72 78
27 28 29 30 48 61 75 71 56 53 61 79 21 14 13 5 3 3 3 11 12 10 6 3 5 10 14 16 19 20 49 83 81 81 90 95 94 81 83 75 71 80 87 78 73 69 70 73 80
54 34 29 30 28 37 69 69 67 62 52 63 46 12 15 6 3 3 2 8 12 8 4 2 4 7 8 10 14 19 30 49 92 94 93 94 88 88 84 79 77 69 68 67 62 64 72 74 81
46 43 35 32 31 33 52 59 59 67 60 54 51 12 14 14 4 3 3 3 5 4 3 2 2 4 4 4 5 11 19 32 38 55 64 80 55 82 92 93 83 72 84 86 83 79 76 72 66
22 40 41 27 27 41 46 49 46 56 56 54 60 16 13 16 7 4 3 3 3 3 3 3 3 2 3 3 3 3 5 15 25 22 28 37 53 62 56 53 36 29 57 67 55 35 22 15 14
17 26 39 38 34 41 44 47 40 52 60 48 49 24 14 14 15 6 4 4 4 4 4 4 3 3 3 3 3 3 3 3 4 6 13 18 19 19 20 20 21 22 23 22 20 19 18 16 14
45 17 26 28 26 33 34 38 37 48 61 50 43 32 20 13 14 15 8 4 4 4 5 5 5 4 4 4 4 3 3 3 3 3 3 3 3 3 3 3 3 4 5 8 11 13 14 14 14
15 42 20 26 26 26 34 30 31 41 53 58 59 41 24 15 15 14 17 12 6 6 8 10 10 10 9 9 8 7 7 8 8 10 14 17 18 18 18 15 13 13 11 10 7 5 4 4 3
2 12 40 37 39 29 28 31 30 41 50 62 60 36 23 18 17 13 16 16 15 15 14 13 11 9 10 11 11 12 12 13 14 16 18 17 16 17 18 20 22 22 21 18 16 15 14 13 14
5 2 19 58 52 38 31 28 30 31 41 60 61 37 27 24 25 14 12 11 12 12 11 8 8 10 14 16 17 18 18 17 17 16 17 16 18 32 39 41 43 45 45 42 39 36 31 27 22
6 5 4 40 62 49 39 28 26 27 28 49 67 61 34 31 29 20 20 16 12 10 9 8 11 14 17 18 16 14 14 13 13 12 10 18 44 46 41 40 42 44 44 46 48 48 50 50 49
8 7 3 11 41 58 43 40 25 23 23 36 59 73 42 36 40 44 46 48 37 19 17 13 12 15 17 17 14 13 12 10 9 8 9 26 40 36 38 38 38 38 42 43 43 46 46 46 44
10 8 6 3 11 55 60 49 35 23 17 20 42 64 61 54 40 49 53 51 49 43 27 19 18 16 15 15 14 13 12 10 9 10 9 19 28 36 30 33 33 32 34 36 41 47 48 44 38
13 7 8 4 4 20 66 65 44 34 21 16 25 44 62 66 56 48 57 61 60 56 41 27 22 19 17 15 14 13 12 10 9 11 13 18 32 39 40 37 29 26 26 33 33 32 33 33 30
3 13 7 8 3 7 48 67 56 38 34 24 20 26 46 52 58 52 59 64 65 63 56 35 26 20 18 15 15 14 13 11 10 9 9 16 35 34 25 15 11 13 12 19 24 21 30 30 25
2 4 13 6 3 3 19 38 63 50 40 32 26 28 29 57 63 55 59 65 73 73 68 61 53 30 20 19 21 26 24 22 19 16 15 14 14 15 17 16 14 12 13 13 13 12 12 30 32
2 2 5 12 5 3 4 16 66 57 43 41 30 25 29 47 65 60 70 78 67 77 75 76 74 67 48 30 28 28 33 35 36 35 33 32 30 28 27 24 21 19 18 17 15 14 13 13 23
4 3 2 9 12 4 3 5 41 64 48 38 37 29 40 43 66 67 71 82 79 80 90 78 83 77 72 63 47 36 33 34 36 41 43 41 44 42 39 35 30 26 22 20 19 17 16 14 14
4 4 3 2 11 11 3 3 12 56 62 44 32 31 29 39 56 61 59 77 80 95 96 94 87 89 79 73 68 64 58 56 57 58 59 58 56 54 50 47 42 38 32 27 22 19 17 16 16
5 5 4 3 5 12 9 3 5 32 64 66 54 33 29 30 60 55 54 47 84 93 98 96 88 96 94 80 75 77 79 74 69 63 58 57 53 48 42 41 38 38 34 30 26 21 18 17 21
7 5 6 5 3 7 14 8 3 10 54 67 64 60 42 29 63 74 84 94 98 95 97 97 97 92 99 91 86 81 77 76 69 59 60 63 59 53 46 40 36 34 30 27 25 21 19 19 27
8 7 7 6 4 3 9 13 9 3 10 50 69 66 63 53 52 81 100 97 98 92 92 83 96 78 74 75 77 72 78 81 79 68 69 74 73 68 65 53 39 33 30 27 25 22 19 18 23
9 9 8 7 6 4 3 5 12 10 3 5 38 68 88 70 56 57 66 96 95 88 85 73 78 73 52 44 52 57 58 63 68 75 71 73 81 79 72 64 38 31 28 26 25 22 20 22 30
13 11 10 9 8 5 4 3 3 12 10 3 8 62 99 90 75 64 68 61 58 64 66 76 71 62 46 32 30 30 40 52 69 72 99 87 86 87 66 56 40 29 20 20 22 22 21 30 43
12 13 12 12 10 7 5 4 3 4 11 8 5 15 79 78 93 96 96 89 80 84 72 64 67 62 67 41 33 28 31 50 53 75 81 85 94 76 68 68 44 23 56 64 37 23 26 32 48
14 15 14 13 12 10 8 7 5 4 4 10 7 5 9 36 54 58 71 85 95 77 70 77 83 83 62 53 59 75 84 86 86 82 83 96 95 74 58 40 23 36 59 70 45 47 47 52 47
18 17 18 18 17 16 12 9 7 7 6 5 9 8 7 20 51 44 13 18 36 58 68 66 74 76 68 72 64 78 85 84 95 93 86 94 96 84 68 28 32 54 70 71 70 76 66 68 71
24 24 22 20 20 19 15 12 10 9 8 8 7 6 10 8 10 39 37 32 24 33 51 51 75 78 73 67 79 84 93 95 90 95 96 95 97 95 66 29 50 66 81 82 76 76 80 83 73
28 28 26 25 24 22 20 17 14 12 11 10 9 8 8 9 11 9 9 12 27 25 27 40 64 77 81 75 76 79 96 97 97 92 87 97 96 94 97 39 71 78 88 85 78 77 77 77 84
50 42 37 33 28 26 26 24 19 17 15 13 13 12 10 8 7 9 11 11 12 20 28 57 53 47 80 86 80 81 90 97 98 97 96 96 96 98 76 59 81 81 90 79 74 73 81 86 87